Year,Month,Day,Hour,Minute,Value (Times are PST for temperature in C)
2011,04,30,00,00,8.00
2011,04,30,00,01,8.00
2011,04,30,00,02,8.00
2011,04,30,00,03,8.00
2011,04,30,00,04,8.00
2011,04,30,00,05,7.90
2011,04,30,00,06,7.90
2011,04,30,00,07,7.90
2011,04,30,00,08,7.90
2011,04,30,00,09,7.90
2011,04,30,00,10,7.90
2011,04,30,00,11,7.90
2011,04,30,00,12,7.90
2011,04,30,00,13,7.90
2011,04,30,00,14,7.80
2011,04,30,00,15,7.80
2011,04,30,00,16,7.80
2011,04,30,00,17,7.80
2011,04,30,00,18,7.80
2011,04,30,00,19,7.80
2011,04,30,00,20,7.80
2011,04,30,00,21,7.80
2011,04,30,00,22,7.80
2011,04,30,00,23,7.80
2011,04,30,00,24,7.80
2011,04,30,00,25,7.80
2011,04,30,00,26,7.70
2011,04,30,00,27,7.70
2011,04,30,00,28,7.70
2011,04,30,00,29,7.70
2011,04,30,00,30,7.70
2011,04,30,00,31,7.70
2011,04,30,00,32,7.70
2011,04,30,00,33,7.70
2011,04,30,00,34,7.60
2011,04,30,00,35,7.70
2011,04,30,00,36,7.60
2011,04,30,00,37,7.60
2011,04,30,00,38,7.60
2011,04,30,00,39,7.60
2011,04,30,00,40,7.60
2011,04,30,00,41,7.60
2011,04,30,00,42,7.60
2011,04,30,00,43,7.60
2011,04,30,00,44,7.60
2011,04,30,00,45,7.60
2011,04,30,00,46,7.50
2011,04,30,00,47,7.50
2011,04,30,00,48,7.50
2011,04,30,00,49,7.50
2011,04,30,00,50,7.50
2011,04,30,00,51,7.50
2011,04,30,00,52,7.50
2011,04,30,00,53,7.40
2011,04,30,00,54,7.40
2011,04,30,00,55,7.40
2011,04,30,00,56,7.40
2011,04,30,00,57,7.40
2011,04,30,00,58,7.40
2011,04,30,00,59,7.40
2011,04,30,01,00,7.30
2011,04,30,01,01,7.30
2011,04,30,01,02,7.30
2011,04,30,01,03,7.30
2011,04,30,01,04,7.30
2011,04,30,01,05,7.30
2011,04,30,01,06,7.20
2011,04,30,01,07,7.20
2011,04,30,01,08,7.20
2011,04,30,01,09,7.20
2011,04,30,01,10,7.20
2011,04,30,01,11,7.20
2011,04,30,01,12,7.20
2011,04,30,01,13,7.20
2011,04,30,01,14,7.20
2011,04,30,01,15,7.20
2011,04,30,01,16,7.20
2011,04,30,01,17,7.20
2011,04,30,01,18,7.20
2011,04,30,01,19,7.20
2011,04,30,01,20,7.20
2011,04,30,01,21,7.10
2011,04,30,01,22,7.10
2011,04,30,01,23,7.10
2011,04,30,01,24,7.00
2011,04,30,01,25,7.00
2011,04,30,01,26,6.90
2011,04,30,01,27,6.90
2011,04,30,01,28,6.90
2011,04,30,01,29,6.90
2011,04,30,01,30,6.80
2011,04,30,01,31,6.80
2011,04,30,01,32,6.80
2011,04,30,01,33,6.80
2011,04,30,01,34,6.80
2011,04,30,01,35,6.70
2011,04,30,01,36,6.70
2011,04,30,01,37,6.70
2011,04,30,01,38,6.70
2011,04,30,01,39,6.70
2011,04,30,01,40,6.70
2011,04,30,01,41,6.70
2011,04,30,01,42,6.70
2011,04,30,01,43,6.70
2011,04,30,01,44,6.60
2011,04,30,01,45,6.60
2011,04,30,01,46,6.60
2011,04,30,01,47,6.60
2011,04,30,01,48,6.60
2011,04,30,01,49,6.60
2011,04,30,01,50,6.60
2011,04,30,01,51,6.60
2011,04,30,01,52,6.60
2011,04,30,01,53,6.60
2011,04,30,01,54,6.60
2011,04,30,01,55,6.60
2011,04,30,01,56,6.60
2011,04,30,01,57,6.50
2011,04,30,01,58,6.50
2011,04,30,01,59,6.50
2011,04,30,02,00,6.50
2011,04,30,02,01,6.50
2011,04,30,02,02,6.50
2011,04,30,02,03,6.50
2011,04,30,02,04,6.40
2011,04,30,02,05,6.40
2011,04,30,02,06,6.40
2011,04,30,02,07,6.40
2011,04,30,02,08,6.40
2011,04,30,02,09,6.40
2011,04,30,02,10,6.40
2011,04,30,02,11,6.40
2011,04,30,02,12,6.40
2011,04,30,02,13,6.30
2011,04,30,02,14,6.30
2011,04,30,02,15,6.30
2011,04,30,02,16,6.30
2011,04,30,02,17,6.30
2011,04,30,02,18,6.30
2011,04,30,02,19,6.30
2011,04,30,02,20,6.30
2011,04,30,02,21,6.30
2011,04,30,02,22,6.30
2011,04,30,02,23,6.30
2011,04,30,02,24,6.30
2011,04,30,02,25,6.30
2011,04,30,02,26,6.30
2011,04,30,02,27,6.30
2011,04,30,02,28,6.30
2011,04,30,02,29,6.30
2011,04,30,02,30,6.30
2011,04,30,02,31,6.30
2011,04,30,02,32,6.30
2011,04,30,02,33,6.30
2011,04,30,02,34,6.30
2011,04,30,02,35,6.30
2011,04,30,02,36,6.30
2011,04,30,02,37,6.30
2011,04,30,02,38,6.30
2011,04,30,02,39,6.30
2011,04,30,02,40,6.40
2011,04,30,02,41,6.40
2011,04,30,02,42,6.40
2011,04,30,02,43,6.40
2011,04,30,02,44,6.40
2011,04,30,02,45,6.40
2011,04,30,02,46,6.40
2011,04,30,02,47,6.40
2011,04,30,02,48,6.40
2011,04,30,02,49,6.30
2011,04,30,02,50,6.30
2011,04,30,02,51,6.30
2011,04,30,02,52,6.30
2011,04,30,02,53,6.30
2011,04,30,02,54,6.30
2011,04,30,02,55,6.30
2011,04,30,02,56,6.30
2011,04,30,02,57,6.30
2011,04,30,02,58,6.30
2011,04,30,02,59,6.30
2011,04,30,03,00,6.30
2011,04,30,03,01,6.30
2011,04,30,03,02,6.30
2011,04,30,03,03,6.30
2011,04,30,03,04,6.30
2011,04,30,03,05,6.20
2011,04,30,03,06,6.30
2011,04,30,03,07,6.20
2011,04,30,03,08,6.20
2011,04,30,03,09,6.20
2011,04,30,03,10,6.20
2011,04,30,03,11,6.20
2011,04,30,03,12,6.20
2011,04,30,03,13,6.30
2011,04,30,03,14,6.20
2011,04,30,03,15,6.30
2011,04,30,03,16,6.20
2011,04,30,03,17,6.20
2011,04,30,03,18,6.20
2011,04,30,03,19,6.20
2011,04,30,03,20,6.20
2011,04,30,03,21,6.20
2011,04,30,03,22,6.20
2011,04,30,03,23,6.20
2011,04,30,03,24,6.20
2011,04,30,03,25,6.20
2011,04,30,03,26,6.20
2011,04,30,03,27,6.20
2011,04,30,03,28,6.20
2011,04,30,03,29,6.20
2011,04,30,03,30,6.20
2011,04,30,03,31,6.20
2011,04,30,03,32,6.10
2011,04,30,03,33,6.10
2011,04,30,03,34,6.10
2011,04,30,03,35,6.10
2011,04,30,03,36,6.10
2011,04,30,03,37,6.10
2011,04,30,03,38,6.10
2011,04,30,03,39,6.00
2011,04,30,03,40,6.00
2011,04,30,03,41,5.90
2011,04,30,03,42,5.90
2011,04,30,03,43,5.90
2011,04,30,03,44,5.90
2011,04,30,03,45,5.90
2011,04,30,03,46,5.80
2011,04,30,03,47,5.80
2011,04,30,03,48,5.80
2011,04,30,03,49,5.80
2011,04,30,03,50,5.70
2011,04,30,03,51,5.70
2011,04,30,03,52,5.70
2011,04,30,03,53,5.70
2011,04,30,03,54,5.60
2011,04,30,03,55,5.60
2011,04,30,03,56,5.60
2011,04,30,03,57,5.60
2011,04,30,03,58,5.50
2011,04,30,03,59,5.50
2011,04,30,04,00,5.50
2011,04,30,04,01,5.40
2011,04,30,04,02,5.40
2011,04,30,04,03,5.40
2011,04,30,04,04,5.40
2011,04,30,04,05,5.40
2011,04,30,04,06,5.40
2011,04,30,04,07,5.40
2011,04,30,04,08,5.40
2011,04,30,04,09,5.40
2011,04,30,04,10,5.40
2011,04,30,04,11,5.40
2011,04,30,04,12,5.40
2011,04,30,04,13,5.30
2011,04,30,04,14,5.40
2011,04,30,04,15,5.30
2011,04,30,04,16,5.30
2011,04,30,04,17,5.30
2011,04,30,04,18,5.30
2011,04,30,04,19,5.30
2011,04,30,04,20,5.30
2011,04,30,04,21,5.30
2011,04,30,04,22,5.30
2011,04,30,04,23,5.30
2011,04,30,04,24,5.30
2011,04,30,04,25,5.30
2011,04,30,04,26,5.30
2011,04,30,04,27,5.30
2011,04,30,04,28,5.30
2011,04,30,04,29,5.30
2011,04,30,04,30,5.30
2011,04,30,04,31,5.30
2011,04,30,04,32,5.30
2011,04,30,04,33,5.30
2011,04,30,04,34,5.30
2011,04,30,04,35,5.30
2011,04,30,04,36,5.30
2011,04,30,04,37,5.30
2011,04,30,04,38,5.30
2011,04,30,04,39,5.30
2011,04,30,04,40,5.30
2011,04,30,04,41,5.30
2011,04,30,04,42,5.30
2011,04,30,04,43,5.30
2011,04,30,04,44,5.30
2011,04,30,04,45,5.30
2011,04,30,04,46,5.30
2011,04,30,04,47,5.30
2011,04,30,04,48,5.40
2011,04,30,04,49,5.40
2011,04,30,04,50,5.40
2011,04,30,04,51,5.40
2011,04,30,04,52,5.40
2011,04,30,04,53,5.40
2011,04,30,04,54,5.40
2011,04,30,04,55,5.40
2011,04,30,04,56,5.40
2011,04,30,04,57,5.40
2011,04,30,04,58,5.40
2011,04,30,04,59,5.40
2011,04,30,05,00,5.40
2011,04,30,05,01,5.40
2011,04,30,05,02,5.40
2011,04,30,05,03,5.40
2011,04,30,05,04,5.40
2011,04,30,05,05,5.40
2011,04,30,05,06,5.40
2011,04,30,05,07,5.40
2011,04,30,05,08,5.40
2011,04,30,05,09,5.40
2011,04,30,05,10,5.40
2011,04,30,05,11,5.40
2011,04,30,05,12,5.50
2011,04,30,05,13,5.40
2011,04,30,05,14,5.50
2011,04,30,05,15,5.50
2011,04,30,05,16,5.50
2011,04,30,05,17,5.50
2011,04,30,05,18,5.50
2011,04,30,05,19,5.50
2011,04,30,05,20,5.50
2011,04,30,05,21,5.50
2011,04,30,05,22,5.50
2011,04,30,05,23,5.50
2011,04,30,05,24,5.50
2011,04,30,05,25,5.60
2011,04,30,05,26,5.50
2011,04,30,05,27,5.60
2011,04,30,05,28,5.60
2011,04,30,05,29,5.60
2011,04,30,05,30,5.60
2011,04,30,05,31,5.60
2011,04,30,05,32,5.60
2011,04,30,05,33,5.60
2011,04,30,05,34,5.60
2011,04,30,05,35,5.60
2011,04,30,05,36,5.60
2011,04,30,05,37,5.60
2011,04,30,05,38,5.60
2011,04,30,05,39,5.60
2011,04,30,05,40,5.60
2011,04,30,05,41,5.60
2011,04,30,05,42,5.60
2011,04,30,05,43,5.60
2011,04,30,05,44,5.60
2011,04,30,05,45,5.60
2011,04,30,05,46,5.60
2011,04,30,05,47,5.60
2011,04,30,05,48,5.60
2011,04,30,05,49,5.60
2011,04,30,05,50,5.60
2011,04,30,05,51,5.60
2011,04,30,05,52,5.60
2011,04,30,05,53,5.50
2011,04,30,05,54,5.50
2011,04,30,05,55,5.50
2011,04,30,05,56,5.40
2011,04,30,05,57,5.40
2011,04,30,05,58,5.40
2011,04,30,05,59,5.40
2011,04,30,06,00,5.40
2011,04,30,06,01,5.40
2011,04,30,06,02,5.40
2011,04,30,06,03,5.40
2011,04,30,06,04,5.40
2011,04,30,06,05,5.40
2011,04,30,06,06,5.40
2011,04,30,06,07,5.40
2011,04,30,06,08,5.40
2011,04,30,06,09,5.40
2011,04,30,06,10,5.40
2011,04,30,06,11,5.40
2011,04,30,06,12,5.40
2011,04,30,06,13,5.40
2011,04,30,06,14,5.40
2011,04,30,06,15,5.40
2011,04,30,06,16,5.40
2011,04,30,06,17,5.40
2011,04,30,06,18,5.40
2011,04,30,06,19,5.40
2011,04,30,06,20,5.40
2011,04,30,06,21,5.40
2011,04,30,06,22,5.40
2011,04,30,06,23,5.40
2011,04,30,06,24,5.40
2011,04,30,06,25,5.40
2011,04,30,06,26,5.40
2011,04,30,06,27,5.40
2011,04,30,06,28,5.40
2011,04,30,06,29,5.40
2011,04,30,06,30,5.40
2011,04,30,06,31,5.40
2011,04,30,06,32,5.40
2011,04,30,06,33,5.40
2011,04,30,06,34,5.40
2011,04,30,06,35,5.50
2011,04,30,06,36,5.50
2011,04,30,06,37,5.50
2011,04,30,06,38,5.50
2011,04,30,06,39,5.60
2011,04,30,06,40,5.60
2011,04,30,06,41,5.60
2011,04,30,06,42,5.60
2011,04,30,06,43,5.60
2011,04,30,06,44,5.60
2011,04,30,06,45,5.60
2011,04,30,06,46,5.70
2011,04,30,06,47,5.70
2011,04,30,06,48,5.70
2011,04,30,06,49,5.70
2011,04,30,06,50,5.70
2011,04,30,06,51,5.70
2011,04,30,06,52,5.70
2011,04,30,06,53,5.70
2011,04,30,06,54,5.80
2011,04,30,06,55,5.80
2011,04,30,06,56,5.80
2011,04,30,06,57,5.80
2011,04,30,06,58,5.80
2011,04,30,06,59,5.80
2011,04,30,07,00,5.80
2011,04,30,07,01,5.90
2011,04,30,07,02,5.90
2011,04,30,07,03,5.90
2011,04,30,07,04,5.90
2011,04,30,07,05,5.90
2011,04,30,07,06,5.90
2011,04,30,07,07,5.90
2011,04,30,07,08,5.90
2011,04,30,07,09,5.90
2011,04,30,07,10,5.90
2011,04,30,07,11,5.90
2011,04,30,07,12,5.90
2011,04,30,07,13,5.90
2011,04,30,07,14,5.90
2011,04,30,07,15,5.90
2011,04,30,07,16,5.90
2011,04,30,07,17,5.90
2011,04,30,07,18,5.90
2011,04,30,07,19,5.90
2011,04,30,07,20,5.80
2011,04,30,07,21,5.80
2011,04,30,07,22,5.80
2011,04,30,07,23,5.80
2011,04,30,07,24,5.80
2011,04,30,07,25,5.80
2011,04,30,07,26,5.80
2011,04,30,07,27,5.80
2011,04,30,07,28,5.80
2011,04,30,07,29,5.80
2011,04,30,07,30,5.80
2011,04,30,07,31,5.80
2011,04,30,07,32,5.90
2011,04,30,07,33,5.90
2011,04,30,07,34,5.90
2011,04,30,07,35,5.90
2011,04,30,07,36,5.90
2011,04,30,07,37,5.90
2011,04,30,07,38,5.90
2011,04,30,07,39,5.90
2011,04,30,07,40,5.90
2011,04,30,07,41,5.90
2011,04,30,07,42,5.90
2011,04,30,07,43,5.90
2011,04,30,07,44,5.90
2011,04,30,07,45,5.90
2011,04,30,07,46,6.00
2011,04,30,07,47,6.00
2011,04,30,07,48,6.10
2011,04,30,07,49,6.10
2011,04,30,07,50,6.10
2011,04,30,07,51,6.10
2011,04,30,07,52,6.20
2011,04,30,07,53,6.20
2011,04,30,07,54,6.20
2011,04,30,07,55,6.30
2011,04,30,07,56,6.30
2011,04,30,07,57,6.30
2011,04,30,07,58,6.30
2011,04,30,07,59,6.40
2011,04,30,08,00,6.40
2011,04,30,08,01,6.40
2011,04,30,08,02,6.40
2011,04,30,08,03,6.40
2011,04,30,08,04,6.40
2011,04,30,08,05,6.40
2011,04,30,08,06,6.50
2011,04,30,08,07,6.50
2011,04,30,08,08,6.60
2011,04,30,08,09,6.60
2011,04,30,08,10,6.60
2011,04,30,08,11,6.60
2011,04,30,08,12,6.70
2011,04,30,08,13,6.70
2011,04,30,08,14,6.70
2011,04,30,08,15,6.70
2011,04,30,08,16,6.80
2011,04,30,08,17,6.80
2011,04,30,08,18,6.80
2011,04,30,08,19,6.90
2011,04,30,08,20,6.90
2011,04,30,08,21,6.90
2011,04,30,08,22,6.90
2011,04,30,08,23,6.90
2011,04,30,08,24,6.90
2011,04,30,08,25,6.90
2011,04,30,08,26,6.90
2011,04,30,08,27,6.90
2011,04,30,08,28,6.90
2011,04,30,08,29,6.90
2011,04,30,08,30,6.90
2011,04,30,08,31,6.90
2011,04,30,08,32,6.90
2011,04,30,08,33,7.00
2011,04,30,08,34,7.10
2011,04,30,08,35,7.10
2011,04,30,08,36,7.20
2011,04,30,08,37,7.20
2011,04,30,08,38,7.20
2011,04,30,08,39,7.20
2011,04,30,08,40,7.30
2011,04,30,08,41,7.40
2011,04,30,08,42,7.40
2011,04,30,08,43,7.60
2011,04,30,08,44,7.60
2011,04,30,08,45,7.70
2011,04,30,08,46,7.80
2011,04,30,08,47,7.90
2011,04,30,08,48,7.90
2011,04,30,08,49,8.00
2011,04,30,08,50,8.10
2011,04,30,08,51,8.20
2011,04,30,08,52,8.20
2011,04,30,08,53,8.20
2011,04,30,08,54,8.30
2011,04,30,08,55,8.30
2011,04,30,08,56,8.40
2011,04,30,08,57,8.40
2011,04,30,08,58,8.40
2011,04,30,08,59,8.40
2011,04,30,09,00,8.40
2011,04,30,09,01,8.40
2011,04,30,09,02,8.30
2011,04,30,09,03,8.30
2011,04,30,09,04,8.30
2011,04,30,09,05,8.30
2011,04,30,09,06,8.30
2011,04,30,09,07,8.30
2011,04,30,09,08,8.30
2011,04,30,09,09,8.30
2011,04,30,09,10,8.30
2011,04,30,09,11,8.30
2011,04,30,09,12,8.30
2011,04,30,09,13,8.30
2011,04,30,09,14,8.30
2011,04,30,09,15,8.40
2011,04,30,09,16,8.40
2011,04,30,09,17,8.40
2011,04,30,09,18,8.50
2011,04,30,09,19,8.60
2011,04,30,09,20,8.70
2011,04,30,09,21,8.70
2011,04,30,09,22,8.80
2011,04,30,09,23,8.80
2011,04,30,09,24,8.90
2011,04,30,09,25,8.90
2011,04,30,09,26,9.00
2011,04,30,09,27,9.10
2011,04,30,09,28,9.10
2011,04,30,09,29,9.20
2011,04,30,09,30,9.30
2011,04,30,09,31,9.40
2011,04,30,09,32,9.60
2011,04,30,09,33,9.60
2011,04,30,09,34,9.70
2011,04,30,09,35,9.70
2011,04,30,09,36,9.70
2011,04,30,09,37,9.70
2011,04,30,09,38,9.70
2011,04,30,09,39,9.70
2011,04,30,09,40,9.70
2011,04,30,09,41,9.70
2011,04,30,09,42,9.70
2011,04,30,09,43,9.70
2011,04,30,09,44,9.70
2011,04,30,09,45,9.70
2011,04,30,09,46,9.70
2011,04,30,09,47,9.80
2011,04,30,09,48,9.80
2011,04,30,09,49,9.80
2011,04,30,09,50,9.80
2011,04,30,09,51,9.80
2011,04,30,09,52,9.90
2011,04,30,09,53,9.90
2011,04,30,09,54,9.90
2011,04,30,09,55,9.90
2011,04,30,09,56,9.90
2011,04,30,09,57,9.90
2011,04,30,09,58,10.00
2011,04,30,09,59,10.00
2011,04,30,10,00,10.10
2011,04,30,10,01,10.10
2011,04,30,10,02,10.10
2011,04,30,10,03,10.10
2011,04,30,10,04,10.00
2011,04,30,10,05,9.90
2011,04,30,10,06,9.90
2011,04,30,10,07,9.80
2011,04,30,10,08,9.70
2011,04,30,10,09,9.60
2011,04,30,10,10,9.50
2011,04,30,10,11,9.40
2011,04,30,10,12,9.30
2011,04,30,10,13,9.30
2011,04,30,10,14,9.30
2011,04,30,10,15,9.30
2011,04,30,10,16,9.30
2011,04,30,10,17,9.30
2011,04,30,10,18,9.20
2011,04,30,10,19,9.20
2011,04,30,10,20,9.20
2011,04,30,10,21,9.30
2011,04,30,10,22,9.30
2011,04,30,10,23,9.30
2011,04,30,10,24,9.30
2011,04,30,10,25,9.30
2011,04,30,10,26,9.40
2011,04,30,10,27,9.40
2011,04,30,10,28,9.60
2011,04,30,10,29,9.70
2011,04,30,10,30,9.80
2011,04,30,10,31,9.80
2011,04,30,10,32,9.80
2011,04,30,10,33,9.80
2011,04,30,10,34,9.80
2011,04,30,10,35,9.80
2011,04,30,10,36,9.90
2011,04,30,10,37,9.90
2011,04,30,10,38,9.90
2011,04,30,10,39,10.00
2011,04,30,10,40,10.10
2011,04,30,10,41,10.20
2011,04,30,10,42,10.20
2011,04,30,10,43,10.30
2011,04,30,10,44,10.30
2011,04,30,10,45,10.40
2011,04,30,10,46,10.40
2011,04,30,10,47,10.40
2011,04,30,10,48,10.50
2011,04,30,10,49,10.60
2011,04,30,10,50,10.60
2011,04,30,10,51,10.60
2011,04,30,10,52,10.70
2011,04,30,10,53,10.60
2011,04,30,10,54,10.60
2011,04,30,10,55,10.60
2011,04,30,10,56,10.50
2011,04,30,10,57,10.40
2011,04,30,10,58,10.40
2011,04,30,10,59,10.40
2011,04,30,11,00,10.40
2011,04,30,11,01,10.40
2011,04,30,11,02,10.40
2011,04,30,11,03,10.50
2011,04,30,11,04,10.60
2011,04,30,11,05,10.60
2011,04,30,11,06,10.60
2011,04,30,11,07,10.50
2011,04,30,11,08,10.50
2011,04,30,11,09,10.60
2011,04,30,11,10,10.50
2011,04,30,11,11,10.60
2011,04,30,11,12,10.60
2011,04,30,11,13,10.60
2011,04,30,11,14,10.60
2011,04,30,11,15,10.60
2011,04,30,11,16,10.70
2011,04,30,11,17,10.70
2011,04,30,11,18,10.80
2011,04,30,11,19,10.80
2011,04,30,11,20,10.80
2011,04,30,11,21,10.80
2011,04,30,11,22,10.80
2011,04,30,11,23,10.80
2011,04,30,11,24,10.80
2011,04,30,11,25,10.90
2011,04,30,11,26,10.90
2011,04,30,11,27,10.90
2011,04,30,11,28,10.90
2011,04,30,11,29,10.90
2011,04,30,11,30,11.00
2011,04,30,11,31,11.00
2011,04,30,11,32,10.90
2011,04,30,11,33,10.90
2011,04,30,11,34,10.90
2011,04,30,11,35,10.80
2011,04,30,11,36,10.80
2011,04,30,11,37,10.90
2011,04,30,11,38,11.00
2011,04,30,11,39,11.10
2011,04,30,11,50,11.40
2011,04,30,11,51,11.40
2011,04,30,11,52,11.60
2011,04,30,11,53,11.60
2011,04,30,11,54,11.60
2011,04,30,11,55,11.70
2011,04,30,11,56,11.70
2011,04,30,11,57,11.80
2011,04,30,11,58,11.80
2011,04,30,11,59,11.70
2011,04,30,12,00,11.60
2011,04,30,12,01,11.60
2011,04,30,12,02,11.60
2011,04,30,12,03,11.70
2011,04,30,12,04,11.70
2011,04,30,12,05,11.80
2011,04,30,12,06,11.70
2011,04,30,12,07,11.70
2011,04,30,12,08,11.70
2011,04,30,12,09,11.80
2011,04,30,12,10,11.80
2011,04,30,12,11,11.90
2011,04,30,12,12,11.90
2011,04,30,12,13,12.00
2011,04,30,12,14,12.00
2011,04,30,12,15,12.00
2011,04,30,12,16,12.10
2011,04,30,12,17,12.00
2011,04,30,12,18,11.90
2011,04,30,12,19,11.90
2011,04,30,12,20,11.80
2011,04,30,12,21,11.80
2011,04,30,12,22,11.70
2011,04,30,12,23,11.60
2011,04,30,12,24,11.60
2011,04,30,12,25,11.60
2011,04,30,12,26,11.60
2011,04,30,12,27,11.60
2011,04,30,12,28,11.60
2011,04,30,12,29,11.60
2011,04,30,12,30,11.60
2011,04,30,12,31,11.60
2011,04,30,12,32,11.70
2011,04,30,12,33,11.70
2011,04,30,12,34,11.70
2011,04,30,12,35,11.70
2011,04,30,12,36,11.70
2011,04,30,12,37,11.80
2011,04,30,12,38,11.90
2011,04,30,12,39,11.90
2011,04,30,12,40,11.90
2011,04,30,12,41,11.90
2011,04,30,12,42,12.00
2011,04,30,12,43,12.00
2011,04,30,12,44,12.10
2011,04,30,12,45,12.10
2011,04,30,12,46,12.10
2011,04,30,12,47,12.10
2011,04,30,12,48,12.10
2011,04,30,12,49,12.10
2011,04,30,12,50,12.20
2011,04,30,12,51,12.20
2011,04,30,12,52,12.30
2011,04,30,12,53,12.30
2011,04,30,12,54,12.30
2011,04,30,12,55,12.30
2011,04,30,12,56,12.20
2011,04,30,12,57,12.30
2011,04,30,12,58,12.30
2011,04,30,12,59,12.30
2011,04,30,13,00,12.30
2011,04,30,13,01,12.30
2011,04,30,13,02,12.30
2011,04,30,13,03,12.30
2011,04,30,13,04,12.20
2011,04,30,13,05,12.20
2011,04,30,13,06,12.20
2011,04,30,13,07,12.20
2011,04,30,13,08,12.30
2011,04,30,13,09,12.30
2011,04,30,13,10,12.30
2011,04,30,13,11,12.50
2011,04,30,13,12,12.60
2011,04,30,13,13,12.70
2011,04,30,13,14,12.80
2011,04,30,13,15,12.80
2011,04,30,13,16,12.80
2011,04,30,13,17,12.80
2011,04,30,13,18,12.80
2011,04,30,13,19,12.90
2011,04,30,13,20,12.90
2011,04,30,13,21,13.00
2011,04,30,13,22,13.10
2011,04,30,13,23,13.10
2011,04,30,13,24,13.20
2011,04,30,13,25,13.30
2011,04,30,13,26,13.30
2011,04,30,13,27,13.30
2011,04,30,13,28,13.30
2011,04,30,13,29,13.30
2011,04,30,13,30,13.40
2011,04,30,13,31,13.50
2011,04,30,13,32,13.50
2011,04,30,13,33,13.40
2011,04,30,13,34,13.20
2011,04,30,13,35,13.10
2011,04,30,13,36,13.10
2011,04,30,13,37,13.00
2011,04,30,13,38,13.00
2011,04,30,13,39,13.10
2011,04,30,13,40,13.10
2011,04,30,13,41,13.10
2011,04,30,13,42,13.20
2011,04,30,13,43,13.20
2011,04,30,13,44,13.20
2011,04,30,13,45,13.20
2011,04,30,13,46,13.20
2011,04,30,13,47,13.20
2011,04,30,13,48,13.20
2011,04,30,13,49,13.10
2011,04,30,13,50,13.10
2011,04,30,13,51,13.00
2011,04,30,13,52,12.90
2011,04,30,13,53,12.90
2011,04,30,13,54,12.80
2011,04,30,13,55,12.80
2011,04,30,13,56,12.80
2011,04,30,13,57,12.80
2011,04,30,13,58,12.80
2011,04,30,13,59,12.80
2011,04,30,14,00,12.80
2011,04,30,14,01,12.80
2011,04,30,14,02,12.80
2011,04,30,14,03,12.70
2011,04,30,14,04,12.70
2011,04,30,14,05,12.70
2011,04,30,14,06,12.60
2011,04,30,14,07,12.60
2011,04,30,14,08,12.60
2011,04,30,14,09,12.60
2011,04,30,14,10,12.60
2011,04,30,14,11,12.60
2011,04,30,14,12,12.60
2011,04,30,14,13,12.50
2011,04,30,14,14,12.50
2011,04,30,14,15,12.50
2011,04,30,14,16,12.60
2011,04,30,14,17,12.60
2011,04,30,14,18,12.60
2011,04,30,14,19,12.60
2011,04,30,14,20,12.60
2011,04,30,14,21,12.50
2011,04,30,14,22,12.60
2011,04,30,14,23,12.60
2011,04,30,14,24,12.60
2011,04,30,14,25,12.60
2011,04,30,14,26,12.60
2011,04,30,14,27,12.60
2011,04,30,14,28,12.60
2011,04,30,14,29,12.60
2011,04,30,14,30,12.60
2011,04,30,14,31,12.50
2011,04,30,14,32,12.60
2011,04,30,14,33,12.60
2011,04,30,14,34,12.60
2011,04,30,14,35,12.60
2011,04,30,14,36,12.60
2011,04,30,14,37,12.70
2011,04,30,14,38,12.80
2011,04,30,14,39,12.80
2011,04,30,14,40,12.80
2011,04,30,14,41,12.80
2011,04,30,14,42,12.80
2011,04,30,14,43,12.80
2011,04,30,14,44,12.80
2011,04,30,14,45,12.80
2011,04,30,14,46,12.80
2011,04,30,14,47,12.80
2011,04,30,14,48,12.80
2011,04,30,14,49,12.80
2011,04,30,14,50,12.80
2011,04,30,14,51,12.80
2011,04,30,14,52,12.80
2011,04,30,14,53,12.80
2011,04,30,14,54,12.80
2011,04,30,14,55,12.80
2011,04,30,14,56,12.80
2011,04,30,14,57,12.80
2011,04,30,14,58,12.80
2011,04,30,14,59,12.80
2011,04,30,15,00,12.80
2011,04,30,15,01,12.80
2011,04,30,15,02,12.90
2011,04,30,15,03,13.00
2011,04,30,15,04,13.10
2011,04,30,15,05,13.10
2011,04,30,15,06,13.20
2011,04,30,15,07,13.30
2011,04,30,15,08,13.30
2011,04,30,15,09,13.40
2011,04,30,15,10,13.60
2011,04,30,15,11,13.60
2011,04,30,15,12,13.60
2011,04,30,15,13,13.70
2011,04,30,15,14,13.60
2011,04,30,15,15,13.60
2011,04,30,15,16,13.70
2011,04,30,15,17,13.70
2011,04,30,15,18,13.60
2011,04,30,15,19,13.60
2011,04,30,15,20,13.60
2011,04,30,15,21,13.70
2011,04,30,15,22,13.80
2011,04,30,15,23,13.80
2011,04,30,15,24,13.80
2011,04,30,15,25,13.90
2011,04,30,15,26,13.90
2011,04,30,15,27,13.90
2011,04,30,15,28,13.90
2011,04,30,15,29,13.90
2011,04,30,15,30,13.90
2011,04,30,15,31,13.90
2011,04,30,15,32,13.90
2011,04,30,15,33,13.90
2011,04,30,15,34,13.80
2011,04,30,15,35,13.80
2011,04,30,15,36,13.80
2011,04,30,15,37,13.70
2011,04,30,15,38,13.70
2011,04,30,15,39,13.70
2011,04,30,15,40,13.60
2011,04,30,15,41,13.60
2011,04,30,15,42,13.60
2011,04,30,15,43,13.60
2011,04,30,15,44,13.60
2011,04,30,15,45,13.50
2011,04,30,15,46,13.50
2011,04,30,15,47,13.50
2011,04,30,15,48,13.60
2011,04,30,15,49,13.60
2011,04,30,15,50,13.60
2011,04,30,15,51,13.60
2011,04,30,15,52,13.70
2011,04,30,15,53,13.70
2011,04,30,15,54,13.70
2011,04,30,15,55,13.70
2011,04,30,15,56,13.70
2011,04,30,15,57,13.70
2011,04,30,15,58,13.70
2011,04,30,15,59,13.70
2011,04,30,16,00,13.60
2011,04,30,16,01,13.60
2011,04,30,16,02,13.60
2011,04,30,16,03,13.60
2011,04,30,16,04,13.60
2011,04,30,16,05,13.60
2011,04,30,16,06,13.60
2011,04,30,16,07,13.60
2011,04,30,16,08,13.60
2011,04,30,16,09,13.60
2011,04,30,16,10,13.60
2011,04,30,16,11,13.60
2011,04,30,16,12,13.60
2011,04,30,16,13,13.60
2011,04,30,16,14,13.60
2011,04,30,16,15,13.60
2011,04,30,16,16,13.50
2011,04,30,16,17,13.50
2011,04,30,16,18,13.50
2011,04,30,16,19,13.60
2011,04,30,16,20,13.60
2011,04,30,16,21,13.60
2011,04,30,16,22,13.60
2011,04,30,16,23,13.60
2011,04,30,16,24,13.70
2011,04,30,16,25,13.70
2011,04,30,16,26,13.70
2011,04,30,16,27,13.70
2011,04,30,16,28,13.70
2011,04,30,16,29,13.70
2011,04,30,16,30,13.70
2011,04,30,16,31,13.70
2011,04,30,16,32,13.60
2011,04,30,16,33,13.70
2011,04,30,16,34,13.70
2011,04,30,16,35,13.80
2011,04,30,16,36,13.80
2011,04,30,16,37,13.80
2011,04,30,16,38,13.80
2011,04,30,16,39,13.80
2011,04,30,16,40,13.80
2011,04,30,16,41,13.80
2011,04,30,16,42,13.80
2011,04,30,16,43,13.80
2011,04,30,16,44,13.90
2011,04,30,16,45,13.90
2011,04,30,16,46,13.90
2011,04,30,16,47,14.00
2011,04,30,16,48,14.00
2011,04,30,16,49,13.90
2011,04,30,16,50,13.90
2011,04,30,16,51,13.90
2011,04,30,16,52,13.90
2011,04,30,16,53,14.00
2011,04,30,16,54,14.10
2011,04,30,16,55,14.10
2011,04,30,16,56,14.10
2011,04,30,16,57,14.10
2011,04,30,16,58,14.10
2011,04,30,16,59,14.00
2011,04,30,17,00,13.90
2011,04,30,17,01,13.90
2011,04,30,17,02,13.80
2011,04,30,17,03,13.80
2011,04,30,17,04,13.80
2011,04,30,17,05,13.90
2011,04,30,17,06,13.90
2011,04,30,17,07,13.80
2011,04,30,17,08,13.80
2011,04,30,17,09,13.70
2011,04,30,17,10,13.70
2011,04,30,17,11,13.60
2011,04,30,17,12,13.60
2011,04,30,17,13,13.50
2011,04,30,17,14,13.40
2011,04,30,17,15,13.40
2011,04,30,17,16,13.40
2011,04,30,17,17,13.40
2011,04,30,17,18,13.40
2011,04,30,17,19,13.40
2011,04,30,17,20,13.50
2011,04,30,17,21,13.60
2011,04,30,17,22,13.60
2011,04,30,17,23,13.60
2011,04,30,17,24,13.50
2011,04,30,17,25,13.50
2011,04,30,17,26,13.60
2011,04,30,17,27,13.70
2011,04,30,17,28,13.70
2011,04,30,17,29,13.60
2011,04,30,17,30,13.60
2011,04,30,17,31,13.60
2011,04,30,17,32,13.60
2011,04,30,17,33,13.60
2011,04,30,17,34,13.60
2011,04,30,17,35,13.60
2011,04,30,17,36,13.60
2011,04,30,17,37,13.60
2011,04,30,17,38,13.50
2011,04,30,17,39,13.60
2011,04,30,17,40,13.60
2011,04,30,17,41,13.60
2011,04,30,17,42,13.50
2011,04,30,17,43,13.40
2011,04,30,17,44,13.40
2011,04,30,17,45,13.40
2011,04,30,17,46,13.40
2011,04,30,17,47,13.40
2011,04,30,17,48,13.40
2011,04,30,17,49,13.50
2011,04,30,17,50,13.50
2011,04,30,17,51,13.60
2011,04,30,17,52,13.60
2011,04,30,17,53,13.60
2011,04,30,17,54,13.70
2011,04,30,17,55,13.70
2011,04,30,17,56,13.80